Location: La B�doule
(43.2468°N, 5.5934°E)
Time: 09:41:57
(UTC+00:00)

Helios 1B rocket - Pass Details

Date: 07 June 2020
Orbit: 575 x 583 km, 98.1° (Epoch: 11 July)

Event Time Altitude Azimuth Distance (km) Brightness Sun altitude
Rises 00:43:18 0° 4° (N) 2,817 7.3 -22.2°
Reaches altitude 10° 00:45:36 10° 355° (N) 1,913 6.0 -22.1°
Maximum altitude 00:49:21 34° 291° (WNW) 972 3.5 -21.9°
Enters shadow 00:49:52 33° 274° (W) 998 3.4 -21.9°
